This demonstration page uses our WeatherBlox Daily Observations layout. Learn more.

Left ArrowRight Arrow

40.97296, -117.73568

Hourly Observations for May 28, 2022

Temp ( °F °C ) Dew Point ( °F °C ) Humidity (%) Winds ( mph kmh ) Pressure ( in mb ) Visibility ( mi km ) Precip ( " mm )
12:56 am 00:56 Cloudy with Light Rain 58 14.4 39 3.9 50 50 WSW 16 26 29.80 1009 10 16 0.00 0.00
1:56 am 01:56 Cloudy with Light Rain 52 11.1 44 6.7 75 75 WSW 9 15 29.82 1010 10 16 0.00 0.00
2:56 am 02:56 Cloudy 51 10.6 45 7.2 80 80 SW 5 7 29.79 1009 10 16 0.00 0.00
3:56 am 03:56 Cloudy with Light Rain 51 10.6 45 7.2 80 80 SSW 5 7 29.77 1008 10 16 0.00 0.00
4:48 am 04:48 Cloudy with Light Rain 50 10 46 7.8 86 86 W 6 9 29.83 1010 9 14 0.02 0.51
4:56 am 04:56 Cloudy with Light Rain 50 10 46 7.8 86 86 SSW 3 6 29.78 1008 4 6 0.03 0.76
5:04 am 05:04 Cloudy with Light Rain 50 10 47 8.3 89 89 SSW 3 6 29.83 1010 5 8 0.00 0.00
5:42 am 05:42 Cloudy with Light Rain 50 10 47 8.3 89 89 SSW 6 9 29.83 1010 10 16 0.01 0.25
5:56 am 05:56 Cloudy 50 10 46 7.8 86 86 S 8 13 29.78 1008 10 16 0.01 0.25
6:22 am 06:22 Cloudy 50 10 46 7.8 86 86 SE 7 11 29.82 1010 10 16 0.00 0.00
6:56 am 06:56 Cloudy 50 10 47 8.3 89 89 S 7 11 29.78 1009 10 16 0.00 0.00
7:07 am 07:07 Cloudy 51 10.6 47 8.3 86 86 Calm 29.81 1010 10 16 0.00 0.00
7:56 am 07:56 Cloudy 52 11.1 47 8.3 83 83 Calm 29.78 1009 10 16 0.00 0.00
8:56 am 08:56 Cloudy 54 12.2 47 8.3 77 77 WSW 12 19 29.77 1008 10 16 0.00 0.00
9:56 am 09:56 Cloudy 58 14.4 47 8.3 67 67 W 9 15 29.76 1008 10 16 0.00 0.00
10:10 am 10:10 Cloudy 57 13.9 46 7.8 67 67 WSW 10 17 29.75 1007 10 16 0.00 0.00
10:56 am 10:56 Mostly Cloudy 60 15.6 47 8.3 62 62 W 8 13 29.75 1008 10 16 0.00 0.00
11:56 am 11:56 Cloudy 61 16.1 44 6.7 54 54 undefined N/A 29.75 1007 10 16 0.00 0.00
12:56 pm 12:56 Cloudy 64 17.8 41 5 43 43 WSW 15 24 29.72 1007 10 16 0.00 0.00
1:56 pm 13:56 Partly Cloudy 67 19.4 40 4.4 37 37 SW 12 19 29.70 1006 10 16 0.00 0.00
2:56 pm 14:56 Mostly Cloudy 67 19.4 37 2.8 33 33 W 15 24 29.68 1005 10 16 0.00 0.00
3:56 pm 15:56 Mostly Cloudy 71 21.7 36 2.2 28 28 W 17 28 29.64 1004 10 16 0.00 0.00
4:56 pm 16:56 Cloudy 70 21.1 34 1.1 27 27 WSW 16 26 29.61 1003 10 16 0.00 0.00
5:56 pm 17:56 Mostly Sunny 69 20.6 34 1.1 27 27 W 16 26 29.59 1002 10 16 0.00 0.00
6:06 pm 18:06 Partly Cloudy with Nearby Thunderstorms 68 20 34 1.1 28 28 W 16 26 29.47 998 10 16 0.00 0.00
6:21 pm 18:21 Partly Cloudy 69 20.6 31 -0.6 24 24 W 22 35 29.46 998 10 16 0.00 0.00
6:56 pm 18:56 Partly Cloudy 67 19.4 28 -2.2 23 23 W 22 35 29.60 1002 10 16 0.00 0.00
7:56 pm 19:56 Cloudy 63 17.2 32 0 31 31 W 21 33 29.61 1003 10 16 0.00 0.00
8:56 pm 20:56 Mostly Cloudy 60 15.6 35 1.7 39 39 W 22 35 29.64 1004 10 16 0.00 0.00
9:56 pm 21:56 Cloudy 52 11.1 43 6.1 72 72 WNW 15 24 29.66 1005 10 16 0.02 0.51
10:07 pm 22:07 Cloudy with Light Rain 48 8.9 42 5.6 80 80 W 30 48 29.74 1007 5 8 0.00 0.00
10:14 pm 22:14 Cloudy with Nearby Thunderstorms 47 8.3 43 6.1 86 86 W 26 43 29.76 1008 3 4 0.06 1.52
10:24 pm 22:24 Cloudy with Nearby Thunderstorms 47 8.3 43 6.1 86 86 WSW 16 26 29.76 1008 6 10 0.11 2.79
10:35 pm 22:35 Mostly Cloudy with Light Rain 47 8.3 44 6.7 90 90 VRB 5 7 29.74 1007 10 16 0.11 2.79
10:56 pm 22:56 Cloudy 47 8.3 43 6.1 86 86 E 8 13 29.70 1006 10 16 0.11 2.79
11:56 pm 23:56 Clear 45 7.2 41 5 86 86 W 9 15 29.71 1006 10 16 0.00 0.00

Powered by AerisWeather